Regional Weather Roundup
Issued by NWS Charleston, SC

Current Version | Previous Version | Graphics & Text | Print | Product List | Glossary On
Versions: 1 2 3 4 5 6 7 8 9 10 11 12 13 14 15 16 17 18 19 20 21 22 23 24 25 26 27 28 29 30 31 32 33 34 35 36 37 38 39 40 41 42 43 44 45 46 47 48 49 50
000 ASUS42 KCHS 241812 RWRCHS REGIONAL WEATHER ROUNDUP NATIONAL WEATHER SERVICE CHARLESTON SC 200 PM EDT WED MAY 24 2017 NOTE: "FAIR" INDICATES FEW OR NO CLOUDS BELOW 12,000 FEET WITH NO SIGNIFICANT WEATHER AND/OR OBSTRUCTIONS TO VISIBILITY. NOT ALL STATIONS ARE QUALITY CONTROLLED. USE DATA WITH CAUTION... ESPECIALLY DEWPOINT OBSERVATIONS. SCZ027-030-031-034>040-042>050-241900- ...SOUTHEAST SOUTH CAROLINA... CITY SKY/WX TMP DP RH WIND PRES REMARKS N CHARLESTON TSTM 76 71 85 S17G28 29.68R 6HR MIN TEMP: 73; 6HR MAX TEMP: 82; 6HR PCP: 0.02; WATERFRONT PRK N/A 78 73 84 SW15G24 29.65F JOHNS ISLAND MOCLDY 79 73 83 S20G29 29.69R PINOPOLIS N/A 81 72 74 S7G14 29.57F MONCKS CORNER FAIR 77 70 78 S15 29.66R SUMMERVILLE FAIR 77 72 83 S8 29.66S THUNDER BEAUFORT MCAS TSTM 73 73 100 S16G28 29.68F VSB 1/4 6HR MIN TEMP: 70; 6HR MAX TEMP: 81; 6HR PCP: 0.34; BEAUFORT ARPT NOT AVBL HILTON HEAD IS TSTM 73 72 94 S17G30 29.72R WALTERBORO LGT RAIN 77 70 78 S16G33 29.67R ALLENDALE MOCLDY 77 72 83 S13G22 29.61S ...SOUTHERN MIDLANDS AND PEE DEE... CITY SKY/WX TMP DP RH WIND PRES REMARKS GEORGETOWN MOCLDY 79 72 78 S14G20 29.68S KINGSTREE FAIR 79 68 69 SE7G18 29.63S ORANGEBURG CLOUDY 77 70 79 S13 29.62S 6HR MIN TEMP: 71; 6HR MAX TEMP: 77; 6HR PCP: TRACE; BARNWELL MOCLDY 77 73 88 S6 29.59F AIKEN MOCLDY 73 68 83 SE12 29.62S MANNING FAIR 79 72 78 S24 29.62F COLUMBIA LGT RAIN 77 69 76 S14 29.59S 6HR MIN TEMP: 72; 6HR MAX TEMP: 79; 6HR PCP: TRACE; SUMTER CLOUDY 76 69 78 S9 29.60S 6HR MIN TEMP: 69; 6HR MAX TEMP: 77; FLORENCE CLOUDY 78 71 79 S9 29.64F 6HR MIN TEMP: 69; 6HR MAX TEMP: 78; MYRTLE BEACH CLOUDY 79 72 78 S21 29.66F N MYRTLE BEACH CLOUDY 79 73 82 S22G30 29.66F 6HR MIN TEMP: 71; 6HR MAX TEMP: 80; $$ GAZ063-065-086>088-099>101-113>116-118-119-134>141-150-241900- ...SOUTHEAST GEORGIA... CITY SKY/WX TMP DP RH WIND PRES REMARKS SAVANNAH ARPT HVY RAIN 74 68 81 S26G39 29.70R 6HR MIN TEMP: 74; 6HR MAX TEMP: 81; 6HR PCP: 0.13; HUNTER AAF LGT RAIN 70 70 100 S12G21 29.69F FORT STEWART RAIN 70 68 94 SE14G23 29.66S FOG 6HR MIN TEMP: 70; 6HR MAX TEMP: 79; 6HR PCP: 0.36; STATESBORO RAIN 74 74 100 S15 29.63F SYLVANIA LGT RAIN 74 74 98 S8G17 29.63S CLAXTON LGT RAIN 70 70 100 SE12G31 29.64S ...CSRA...CENTRAL AND FAR SOUTHEAST GEORGIA... CITY SKY/WX TMP DP RH WIND PRES REMARKS THOMSON TSTM 67 65 96 NW10G17 29.62R FOG AUGUSTA-BUSH CLOUDY 78 71 79 SE15G23 29.55F 6HR MIN TEMP: 72; 6HR MAX TEMP: 80; AUGUSTA-DANIEL CLOUDY 76 68 76 S15G22 29.56F SWAINSBORO MOCLDY 77 72 83 S10G21 29.59F VIDALIA CLOUDY 77 70 78 S16G25 29.62F EASTMAN CLOUDY 78 61 56 S14G21 29.59F HAZLEHURST FAIR 74 70 88 S12G17 29.61F ALMA CLOUDY 72 68 87 S9 29.63F 6HR MIN TEMP: 71; 6HR MAX TEMP: 76; 6HR PCP: 0.19; WAYCROSS CLOUDY 74 74 100 S12 29.64F JESUP LGT RAIN 68 64 88 S3 29.68F BAXLEY PTSUNNY 72 72 100 S8 29.64F BRUNSWICK RAIN 72 72 100 SW8 29.73R SAINT SIMONS TSTM 72 70 93 SW8 29.69F FOG 6HR MIN TEMP: 72; 6HR MAX TEMP: 80; 6HR PCP: 1.10; $$ SCZ027-028-034-036>038-045-046-048>050-GAZ119-141-241900- ...LAKE AND SUPPLEMENTAL COASTAL OBSERVATIONS... STATION/POSITION TIME TEMP WIND PRES WAVE SWELL AIR SEA DIR/SP/G HT/PER HT/PER/DIR (UTC) (F) (DEG/KT/KT) (MB) (FT/S) (FT/S/D) WINYAH BAY 1645 80 210/ 13 1004.0 LAKE MURRAY 1720 76 170/ 12/ 14 1001.4 ACE BASIN NERRS 1645 79 180/ 2 1005.0 FORT PULASKI 1748 72 220/ 12/ 19 1007.2R SAPELO ISLAND 1700 70 170/ 14 1007.0 $$ ANZ835-935-AMZ111-154-330-350-352-354-370-450-454-472-241900- ...C-MAN AND BUOY OBSERVATIONS... STATION/POSITION TIME TEMP WIND PRES WAVE SWELL AIR SEA DIR/SP/G HT/PER HT/PER/DIR (UTC) (F) (DEG/KT/KT) (MB) (FT/S) (FT/S/D) BUOY 41004 1750 77 77 200/ 17/ 23 1005.3F 6/ 6 BUOY 41008 1650 75 78 190/ 23/ 27 1006.4 4/ 6 FOLLY BEACH CMAN 1700 77 200/ 19/ 22 1005.5F CAPERS NEARSHORE 1708 80 77 210/ 17/ 23 1004.6F FRIPP NEARSHORE 1708 78 78 200/ 23/ 31 1004.0F STATION/POSITION TIME TEMP WIND PRES WAVE SWELL AIR SEA DIR/SP/G HT/PER HT/PER/DIR (UTC) (F) (DEG/KT/KT) (MB) (FT/S) (FT/S/D) 5E ST. MARYS GA 1800 78 N/A 3/ 6 FRYING PAN BUOY 1750 77 77 210/ 16/ 21 1005.9R 7/ 8 3/180/ 8 BUOY 41025 1750 74 75 210/ 6/ 8 1006.3F 5/ 8 5/190/ 8 CAPE LOOKOUT NC 1700 73 160/ 6/ 6 1005.9F BUOY 41002 1750 78 76 200/ 21/ 25 1010.4S 8/ 8 2/ 60/11 BUOY 41010 1750 80 79 180/ 14/ 16 1009.0F 6/ 7 3/200/ 7 ST AUGUSTINE FL 1800 76 77 210/ 13/ 15 1006.0F $$

USA.gov is the U.S. government's official web portal to all federal, state and local government web resources and services.